Weather History for Bremerton, WA

Change the Weather History Date:

Monday, August 20, 2012

  Actual Average Record
Temperature  
Mean Temperature 64 °F -  
Max Temperature 78 °F 73 °F 84 °F (2006)
Min Temperature 51 °F 50 °F 44 °F (2001)
Growing Degree Days 14 (Base 50)    
Moisture  
Dew Point 51 °F    
Average Humidity 63    
Maximum Humidity 82    
Minimum Humidity 39    
Precipitation  
Precipitation 0.00 in - - ()
Sea Level Pressure  
Sea Level Pressure 30.04 in    
Wind  
Wind Speed 2 mph (NE)    
Max Wind Speed 10 mph    
Max Gust Speed -    
Visibility 10 miles    
Events      
Averages and records for this station are not official NWS values.
T = Trace of Precipitation, MM = Missing Value Source: NWS Daily Summary

Daily Weather History Graph

Daily Weather History Graph

Search for Another Location

Airport:

Trip Planner

Search our weather history database for the weather conditions in past years. The results will help you decide how hot, cold, wet, or windy it might be!

Date:

Astronomy

Aug. 20, 2012 Rise Set
Actual Time 6:14 AM PDT 8:13 PM PDT
Civil Twilight 5:41 AM PDT 8:45 PM PDT
Nautical Twilight 5:00 AM PDT 9:26 PM PDT
Astronomical Twilight 4:15 AM PDT 10:11 PM PDT
Moon 10:03 AM PDT (8/20) 9:16 PM PDT (8/20)
Length of Visible Light 15h 04m
Length of Day
13h 58m
Waxing Crescent, 12% of the Moon is Illuminated
Aug 20
Waxing Crescent
Aug 24
First Quarter
Aug 31
Full
Sep 8
Last Quarter
Sep 15
New

Hourly Weather History & Observations

Time (PDT) Temp. Dew Point Humidity Pressure Visibility Wind Dir Wind Speed Gust Speed Precip Events Conditions
12:15 AM 53.6 °F 46.4 °F 77% 30.08 in 10.0 mi Calm Calm - N/A   Clear
12:35 AM 51.8 °F 46.4 °F 82% 30.07 in 10.0 mi Calm Calm - N/A   Scattered Clouds
12:55 AM 53.6 °F 48.2 °F 82% 30.08 in 10.0 mi Calm Calm - N/A   Overcast
1:35 AM 55.4 °F 50.0 °F 82% 30.08 in 10.0 mi Calm Calm - N/A   Overcast
1:55 AM 57.2 °F 51.8 °F 82% 30.08 in 10.0 mi Calm Calm - N/A   Overcast
2:15 AM 57.2 °F 50.0 °F 77% 30.07 in 10.0 mi NE 3.5 mph - N/A   Overcast
2:35 AM 59.0 °F 50.0 °F 72% 30.09 in 10.0 mi Calm Calm - N/A   Overcast
2:55 AM 59.0 °F 50.0 °F 72% 30.08 in 10.0 mi ENE 4.6 mph - N/A   Overcast
3:15 AM 59.0 °F 48.2 °F 67% 30.09 in 10.0 mi ENE 3.5 mph - N/A   Overcast
3:35 AM 59.0 °F 48.2 °F 67% 30.09 in 10.0 mi Calm Calm - N/A   Overcast
3:55 AM 59.0 °F 48.2 °F 67% 30.09 in 10.0 mi Calm Calm - N/A   Overcast
4:15 AM 57.2 °F 48.2 °F 72% 30.08 in 10.0 mi Calm Calm - N/A   Overcast
4:35 AM 55.4 °F 46.4 °F 72% 30.08 in 10.0 mi Calm Calm - N/A   Overcast
4:55 AM 53.6 °F 48.2 °F 82% 30.06 in 10.0 mi Calm Calm - N/A   Mostly Cloudy
5:15 AM 51.8 °F 46.4 °F 82% 30.07 in 10.0 mi Calm Calm - N/A   Partly Cloudy
5:35 AM 53.6 °F 48.2 °F 82% 30.07 in 10.0 mi Calm Calm - N/A   Mostly Cloudy
5:55 AM 55.4 °F 48.2 °F 77% 30.06 in 10.0 mi Calm Calm - N/A   Overcast
6:15 AM 55.4 °F 48.2 °F 77% 30.07 in 10.0 mi Calm Calm - N/A   Overcast
6:35 AM 53.6 °F 48.2 °F 82% 30.07 in 10.0 mi Calm Calm - N/A   Overcast
6:55 AM 53.6 °F 48.2 °F 82% 30.06 in 10.0 mi Calm Calm - N/A   Scattered Clouds
7:15 AM 53.6 °F 48.2 °F 82% 30.07 in 10.0 mi Calm Calm - N/A   Clear
7:35 AM 55.4 °F 48.2 °F 77% 30.06 in 10.0 mi Calm Calm - N/A   Clear
7:55 AM 57.2 °F 50.0 °F 77% 30.07 in 10.0 mi Calm Calm - N/A   Clear
8:15 AM 60.8 °F 50.0 °F 68% 30.06 in 10.0 mi NNE 3.5 mph - N/A   Clear
8:35 AM 60.8 °F 51.8 °F 72% 30.07 in 10.0 mi Calm Calm - N/A   Clear
8:55 AM 62.6 °F 51.8 °F 68% 30.07 in 10.0 mi NNE 3.5 mph - N/A   Clear
9:15 AM 62.6 °F 51.8 °F 68% 30.08 in 10.0 mi Calm Calm - N/A   Clear
9:35 AM 64.4 °F 51.8 °F 64% 30.08 in 10.0 mi Calm Calm - N/A   Clear
9:55 AM 64.4 °F 53.6 °F 68% 30.08 in 10.0 mi Calm Calm - N/A   Clear
10:15 AM 66.2 °F 53.6 °F 64% 30.08 in 10.0 mi North 3.5 mph - N/A   Clear
10:35 AM 64.4 °F 51.8 °F 64% 30.09 in 10.0 mi Calm Calm - N/A   Clear
10:55 AM 68.0 °F 53.6 °F 60% 30.08 in 10.0 mi Calm Calm - N/A   Clear
11:15 AM 66.2 °F 53.6 °F 64% 30.08 in 10.0 mi Calm Calm - N/A   Mostly Cloudy
11:35 AM 66.2 °F 53.6 °F 64% 30.08 in 10.0 mi Calm Calm - N/A   Overcast
11:55 AM 68.0 °F 51.8 °F 56% 30.07 in 10.0 mi Calm Calm - N/A   Mostly Cloudy
12:15 PM 68.0 °F 53.6 °F 60% 30.06 in 10.0 mi Calm Calm - N/A   Partly Cloudy
12:35 PM 69.8 °F 53.6 °F 56% 30.06 in 10.0 mi South 4.6 mph - N/A   Clear
12:55 PM 69.8 °F 51.8 °F 53% 30.06 in 10.0 mi Calm Calm - N/A   Scattered Clouds
1:15 PM 71.6 °F 51.8 °F 50% 30.05 in 10.0 mi SE 4.6 mph - N/A   Overcast
1:35 PM 71.6 °F 51.8 °F 50% 30.05 in 10.0 mi Calm Calm - N/A   Overcast
1:55 PM 73.4 °F 51.8 °F 47% 30.05 in 10.0 mi South 4.6 mph - N/A   Overcast
2:15 PM 73.4 °F 51.8 °F 47% 30.04 in 10.0 mi West 8.1 mph - N/A   Scattered Clouds
2:35 PM 75.2 °F 53.6 °F 47% 30.04 in 10.0 mi South 9.2 mph - N/A   Scattered Clouds
2:55 PM 75.2 °F 51.8 °F 44% 30.03 in 10.0 mi Calm Calm - N/A   Partly Cloudy
3:15 PM 75.2 °F 51.8 °F 44% 30.03 in 10.0 mi SSW 4.6 mph - N/A   Clear
3:35 PM 75.2 °F 51.8 °F 44% 30.02 in 10.0 mi WSW 8.1 mph - N/A   Clear
3:55 PM 78.8 °F 51.8 °F 39% 30.02 in 10.0 mi WSW 5.8 mph - N/A   Clear
4:15 PM 78.8 °F 51.8 °F 39% 30.01 in 10.0 mi NNW 6.9 mph - N/A   Clear
4:35 PM 78.8 °F 51.8 °F 39% 30.01 in 10.0 mi Calm Calm - N/A   Clear
4:55 PM 75.2 °F 53.6 °F 47% 30.00 in 10.0 mi NNE 9.2 mph - N/A   Clear
5:15 PM 75.2 °F 53.6 °F 47% 30.00 in 10.0 mi NE 8.1 mph - N/A   Clear
5:35 PM 75.2 °F 53.6 °F 47% 29.99 in 10.0 mi NNE 8.1 mph - N/A   Clear
5:55 PM 75.2 °F 53.6 °F 47% 29.99 in 10.0 mi NNE 10.4 mph - N/A   Clear
6:15 PM 75.2 °F 51.8 °F 44% 29.99 in 10.0 mi NNE 6.9 mph - N/A   Clear
6:35 PM 73.4 °F 51.8 °F 47% 29.99 in 10.0 mi NE 8.1 mph - N/A   Clear
6:55 PM 73.4 °F 51.8 °F 47% 29.98 in 10.0 mi NE 6.9 mph - N/A   Clear
7:15 PM 73.4 °F 51.8 °F 47% 29.98 in 10.0 mi NE 6.9 mph - N/A   Clear
7:35 PM 71.6 °F 51.8 °F 50% 29.98 in 10.0 mi NE 8.1 mph - N/A   Clear
7:55 PM 69.8 °F 51.8 °F 53% 29.98 in 10.0 mi NE 4.6 mph - N/A   Clear
8:15 PM 68.0 °F 51.8 °F 56% 29.98 in 10.0 mi NE 6.9 mph - N/A   Clear
8:35 PM 66.2 °F 51.8 °F 60% 29.99 in 10.0 mi NE 9.2 mph - N/A   Clear
8:55 PM 66.2 °F 51.8 °F 60% 29.99 in 10.0 mi ENE 4.6 mph - N/A   Clear
9:15 PM 64.4 °F 51.8 °F 64% 29.99 in 10.0 mi ENE 4.6 mph - N/A   Clear
9:55 PM 62.6 °F 51.8 °F 68% 30.00 in 10.0 mi ENE 4.6 mph - N/A   Clear
10:15 PM 62.6 °F 50.0 °F 63% 29.99 in 10.0 mi NE 5.8 mph - N/A   Clear
10:35 PM 60.8 °F 50.0 °F 68% 29.99 in 10.0 mi ENE 3.5 mph - N/A   Clear
10:55 PM 59.0 °F 48.2 °F 67% 29.99 in 10.0 mi Calm Calm - N/A   Clear
11:15 PM 55.4 °F 48.2 °F 77% 30.00 in 10.0 mi Calm Calm - N/A   Clear
11:35 PM 57.2 °F 48.2 °F 72% 30.01 in 10.0 mi Calm Calm - N/A   Clear
11:55 PM 55.4 °F 48.2 °F 77% 30.01 in 10.0 mi East 3.5 mph - N/A   Clear